sat.trackr.live / text

‹ back to catalog

STARLINK-34059

NORAD 63872 · 2025-094J

PAYLOAD ACTIVE UNKNOWN

§ Identity

Operator
Country
US
Launch date
2025-05-10
Launch site
AFWTR
Launch vehicle
Mass (kg)
RCS (m²)

Purposes: comms

External: N2YO · Heavens-Above · Gunter

§ Orbital elements

Epoch: 2026-09-20T14:29:01.032288Z

Period
94.14 min
Inclination
69.9984°
Eccentricity
0.0003317
Mean motion
15.29589029 rev/d
Perigee alt
474.8 km
Apogee alt
479.3 km
Semi-major
6,855.2 km
B*
3.1889e-4
RAAN
100.4520°
Arg perigee
269.5930°
Mean anomaly
90.4865°
Rev number
7,646

§ Raw data

STARLINK-340591 63872U 25094J   26263.60348417  .00009053  00000+0  31889-3 0  99962 63872  69.9984 100.4520 0003317 269.5930  90.4865 15.29589029 76468

JSON: /api/v1/satellites/63872 · /tle

For live sub-satellite position, see the globe view (requires WebGL).

§ Visibility from observer

Set your observer location to see the next 7 days of passes ≥ 10°. The values pass through the URL so the page stays shareable.

No JS? Fill the form by hand. The geolocation button needs JavaScript.